Starlink 11553

operational
NORAD ID: 63006 Int'l Des: 2025-032 Owner: SPXS Country: US Constellation: starlink
LEOCIRCULAR

Starlink 11553について

説明を読み込み中...

リアルタイム位置

3D地球を読み込み中...

次回通過

高度履歴

Altitude vs Time

uPlot chart will show altitude changes over time

軌道要素

1 63006U 25032B 25354.17353676 .00170411 00000-0 13006-2 0 9990
2 63006 42.9990 315.0263 0001975 247.9537 112.1121 15.70911524 49703
Epoch: Dec 20, 2025 • Age: 6 hours

現在のステータス

高度 358.9 km
速度 7.70 km/s
衛星直下点 35.71°N, 116.47°E
打ち上げ日 Feb 15, 2025
運用期間 0.8 years
タイプ internet

技術仕様

分類 Payload
質量 960.00 kg
乾燥質量 910.00 kg
総質量 960.00 kg
長さ 0.30 m
直径 4.10 m
スパン 29.00 m
形状 Box + pan
製造者 SPXS
バスタイプ Starlink V2MD
フェーズステータス In Orbit
所有者/国 SPXS/US

大規模コンステレーション

Loading constellations...